FIN246 EDDH-EFHK

Flight info

Callsign FIN246
Flight time N/A
Altitude 39000
Route LUGEG3C/05 LUGEG P605 GESKA DCT EKRAL DCT ALAMI DCT OKEVU DCT EVADI Y370 DIVAM
Aircraft A20N/M-SDE2E3FGHIRWXY/LB1

Departure

Time N/A
Airport Hamburg Helmut Schmidt Airport (EDDH)

Arrival

Time 2026-05-06 14:09
Airport Helsinki Vantaa Airport (EFHK)
Time Latitude Longitude Altitude Speed Heading
2026-05-06 13:09 56.45992 15.25415 31943 ft 491 kts 49°
2026-05-06 13:10 56.50648 15.34483 31945 ft 492 kts 49°
2026-05-06 13:10 56.55309 15.43596 31947 ft 493 kts 49°
2026-05-06 13:11 56.59970 15.52743 31946 ft 494 kts 49°
2026-05-06 13:11 56.64628 15.61922 31943 ft 495 kts 49°
2026-05-06 13:12 56.69285 15.71135 31952 ft 496 kts 49°
2026-05-06 13:12 56.73955 15.80410 31963 ft 497 kts 49°
2026-05-06 13:13 56.78597 15.89666 31968 ft 498 kts 49°
2026-05-06 13:13 56.83271 15.99023 31961 ft 499 kts 49°
2026-05-06 13:14 56.87947 16.08420 31960 ft 500 kts 50°
2026-05-06 13:14 56.92619 16.17848 31961 ft 500 kts 50°
2026-05-06 13:15 56.97295 16.27323 31968 ft 501 kts 50°
2026-05-06 13:15 57.01939 16.36769 31970 ft 502 kts 50°
2026-05-06 13:16 57.06582 16.46252 31978 ft 503 kts 50°
2026-05-06 13:16 57.11260 16.55847 31973 ft 504 kts 50°
2026-05-06 13:16 57.13597 16.60655 32292 ft 502 kts 50°
2026-05-06 13:17 57.15909 16.65415 33063 ft 495 kts 50°
2026-05-06 13:17 57.18194 16.70131 33601 ft 493 kts 51°
2026-05-06 13:17 57.20471 16.74844 34032 ft 492 kts 51°
2026-05-06 13:17 57.22749 16.79573 34368 ft 493 kts 50°
2026-05-06 13:18 57.25025 16.84305 34678 ft 493 kts 50°
2026-05-06 13:18 57.27303 16.89052 34981 ft 494 kts 50°
2026-05-06 13:18 57.29588 16.93818 35283 ft 495 kts 50°
2026-05-06 13:18 57.31840 16.98529 35593 ft 495 kts 50°
2026-05-06 13:19 57.34120 17.03306 35894 ft 495 kts 50°
2026-05-06 13:19 57.36400 17.08093 36187 ft 496 kts 49°
2026-05-06 13:19 57.38687 17.12907 36482 ft 496 kts 49°
2026-05-06 13:19 57.40966 17.17713 36772 ft 496 kts 49°
2026-05-06 13:20 57.43244 17.22528 37058 ft 497 kts 49°
2026-05-06 13:20 57.45522 17.27350 37333 ft 497 kts 49°
2026-05-06 13:20 57.47805 17.32193 37602 ft 497 kts 49°
2026-05-06 13:20 57.50078 17.37026 37871 ft 497 kts 49°
2026-05-06 13:21 57.52356 17.41878 38139 ft 497 kts 49°
2026-05-06 13:21 57.54631 17.46734 38397 ft 497 kts 48°
2026-05-06 13:21 57.56904 17.51596 38640 ft 497 kts 48°
2026-05-06 13:21 57.59149 17.56407 38835 ft 497 kts 48°
2026-05-06 13:22 57.61418 17.61280 38958 ft 497 kts 48°
2026-05-06 13:22 57.65942 17.71023 38983 ft 496 kts 48°
2026-05-06 13:23 57.70451 17.80775 38989 ft 496 kts 48°
2026-05-06 13:23 57.74962 17.90572 38996 ft 496 kts 48°
2026-05-06 13:24 57.79468 18.00400 38988 ft 496 kts 48°
2026-05-06 13:24 57.83935 18.10183 38998 ft 497 kts 49°
2026-05-06 13:25 57.88424 18.20054 38986 ft 497 kts 49°
2026-05-06 13:25 57.92909 18.29956 38998 ft 497 kts 49°
2026-05-06 13:26 57.97389 18.39890 38996 ft 497 kts 49°
2026-05-06 13:26 58.01865 18.49857 39000 ft 498 kts 49°
2026-05-06 13:27 58.06329 18.59840 39006 ft 498 kts 49°
2026-05-06 13:27 58.10779 18.69834 39006 ft 503 kts 49°
2026-05-06 13:28 58.15316 18.80067 39008 ft 511 kts 49°
2026-05-06 13:28 58.19871 18.90388 39007 ft 510 kts 49°
2026-05-06 13:29 58.24419 19.00739 39007 ft 511 kts 49°
2026-05-06 13:29 58.28963 19.11125 39015 ft 511 kts 49°
2026-05-06 13:30 58.33500 19.21542 39016 ft 511 kts 49°
2026-05-06 13:30 58.38025 19.31975 39029 ft 512 kts 49°
2026-05-06 13:31 58.42557 19.42472 39018 ft 512 kts 49°
2026-05-06 13:31 58.47078 19.52994 39019 ft 512 kts 49°
2026-05-06 13:32 58.51586 19.63528 39025 ft 512 kts 49°
2026-05-06 13:32 58.56060 19.74034 39025 ft 512 kts 49°
2026-05-06 13:33 58.60561 19.84647 39023 ft 513 kts 49°
2026-05-06 13:33 58.65055 19.95294 39025 ft 513 kts 49°
2026-05-06 13:34 58.69539 20.05966 39029 ft 513 kts 49°
2026-05-06 13:34 58.74013 20.16661 39029 ft 513 kts 49°
2026-05-06 13:35 58.78476 20.27380 39026 ft 513 kts 50°
2026-05-06 13:35 58.82941 20.38150 39027 ft 513 kts 50°
2026-05-06 13:36 58.87365 20.48874 39026 ft 513 kts 50°
2026-05-06 13:36 58.91812 20.59699 39028 ft 514 kts 50°
2026-05-06 13:37 58.96258 20.70552 39028 ft 514 kts 50°
2026-05-06 13:37 59.00698 20.81429 39030 ft 514 kts 50°
2026-05-06 13:38 59.05000 20.92533 39031 ft 515 kts 54°
2026-05-06 13:38 59.08764 21.04406 39028 ft 516 kts 57°
2026-05-06 13:39 59.12536 21.16299 39032 ft 516 kts 57°
2026-05-06 13:39 59.16267 21.28148 39031 ft 516 kts 57°
2026-05-06 13:40 59.19997 21.40131 39031 ft 517 kts 57°
2026-05-06 13:40 59.23095 21.50148 39033 ft 517 kts 58°
2026-05-06 13:41 59.26801 21.62191 39031 ft 517 kts 58°
2026-05-06 13:41 59.30494 21.74264 39036 ft 517 kts 58°
2026-05-06 13:42 59.34186 21.86392 39033 ft 517 kts 58°
2026-05-06 13:42 59.36019 21.92432 38897 ft 514 kts 58°
2026-05-06 13:42 59.37843 21.98455 38382 ft 513 kts 58°
2026-05-06 13:42 59.39651 22.04431 37514 ft 517 kts 58°
2026-05-06 13:43 59.41498 22.10549 36405 ft 524 kts 58°
2026-05-06 13:43 59.43365 22.16752 35121 ft 532 kts 59°
2026-05-06 13:43 59.45255 22.23050 34102 ft 534 kts 59°
2026-05-06 13:43 59.47136 22.29337 33379 ft 530 kts 59°
2026-05-06 13:44 59.48999 22.35583 32615 ft 529 kts 59°
2026-05-06 13:44 59.50858 22.41835 31712 ft 531 kts 60°
2026-05-06 13:44 59.52723 22.48128 30799 ft 533 kts 60°
2026-05-06 13:44 59.54571 22.54389 29974 ft 534 kts 60°
2026-05-06 13:45 59.56425 22.60688 29356 ft 527 kts 60°
2026-05-06 13:45 59.60061 22.73100 28073 ft 516 kts 59°
2026-05-06 13:45 59.61845 22.79212 27435 ft 511 kts 59°
2026-05-06 13:46 59.63605 22.85258 26808 ft 506 kts 59°
2026-05-06 13:46 59.65350 22.91271 26170 ft 501 kts 59°
2026-05-06 13:46 59.67075 22.97231 25565 ft 497 kts 59°
2026-05-06 13:46 59.68757 23.03057 24953 ft 493 kts 59°
2026-05-06 13:47 59.70456 23.08952 24327 ft 490 kts 58°
2026-05-06 13:47 59.72136 23.14788 23703 ft 486 kts 58°
2026-05-06 13:47 59.73801 23.20586 22961 ft 480 kts 58°
2026-05-06 13:47 59.75426 23.26261 22440 ft 465 kts 58°
2026-05-06 13:48 59.76999 23.31762 21856 ft 453 kts 58°
2026-05-06 13:48 59.78533 23.37142 21287 ft 442 kts 58°
2026-05-06 13:48 59.80027 23.42390 20719 ft 432 kts 58°
2026-05-06 13:48 59.81490 23.47543 20167 ft 423 kts 58°
2026-05-06 13:49 59.82882 23.52454 19642 ft 415 kts 58°
2026-05-06 13:49 59.84284 23.57409 19105 ft 407 kts 58°
2026-05-06 13:49 59.85696 23.62344 18655 ft 422 kts 57°
2026-05-06 13:49 59.87298 23.67334 18407 ft 428 kts 53°
2026-05-06 13:50 59.88954 23.72193 18165 ft 425 kts 53°
2026-05-06 13:50 59.90599 23.77081 17889 ft 423 kts 54°
2026-05-06 13:50 59.92200 23.81966 17613 ft 419 kts 54°
2026-05-06 13:50 59.93764 23.86840 17343 ft 416 kts 55°
2026-05-06 13:51 59.95309 23.91715 17075 ft 414 kts 55°
2026-05-06 13:51 59.96838 23.96571 16813 ft 412 kts 55°
2026-05-06 13:51 59.98356 24.01410 16543 ft 410 kts 55°
2026-05-06 13:51 59.99863 24.06222 16288 ft 407 kts 55°
2026-05-06 13:52 60.01337 24.10935 16026 ft 405 kts 55°
2026-05-06 13:52 60.02846 24.15771 15775 ft 403 kts 55°
2026-05-06 13:52 60.04305 24.20454 15466 ft 401 kts 55°
2026-05-06 13:52 60.05780 24.25198 14944 ft 401 kts 55°
2026-05-06 13:53 60.07263 24.29979 14406 ft 397 kts 55°
2026-05-06 13:53 60.08714 24.34668 13872 ft 393 kts 55°
2026-05-06 13:53 60.10145 24.39298 13312 ft 388 kts 55°
2026-05-06 13:53 60.11467 24.43580 12833 ft 382 kts 55°
2026-05-06 13:54 60.12852 24.48077 12324 ft 376 kts 56°
2026-05-06 13:54 60.14217 24.52515 11821 ft 370 kts 56°
2026-05-06 13:54 60.15558 24.56878 11341 ft 364 kts 56°
2026-05-06 13:54 60.16851 24.61097 10868 ft 358 kts 56°
2026-05-06 13:55 60.18147 24.65333 10407 ft 352 kts 57°
2026-05-06 13:55 60.19406 24.69461 10229 ft 334 kts 57°
2026-05-06 13:55 60.20563 24.73273 10045 ft 314 kts 57°
2026-05-06 13:55 60.21668 24.76916 9769 ft 299 kts 57°
2026-05-06 13:56 60.22733 24.80434 9338 ft 289 kts 57°
2026-05-06 13:56 60.23765 24.83841 9188 ft 286 kts 57°
2026-05-06 13:56 60.24827 24.87343 9054 ft 290 kts 56°
2026-05-06 13:56 60.25876 24.90805 8818 ft 289 kts 56°
2026-05-06 13:57 60.26904 24.94212 8493 ft 287 kts 56°
2026-05-06 13:57 60.27930 24.97622 8162 ft 283 kts 56°
2026-05-06 13:57 60.28941 25.00989 7837 ft 278 kts 56°
2026-05-06 13:57 60.29935 25.04309 7532 ft 274 kts 56°
2026-05-06 13:58 60.30915 25.07581 7229 ft 270 kts 56°
2026-05-06 13:58 60.31884 25.10815 6910 ft 268 kts 56°
2026-05-06 13:58 60.32834 25.13993 6735 ft 259 kts 56°
2026-05-06 13:58 60.33747 25.17063 6655 ft 250 kts 56°
2026-05-06 13:59 60.34620 25.20001 6561 ft 239 kts 56°
2026-05-06 13:59 60.35459 25.22817 6481 ft 229 kts 56°
2026-05-06 13:59 60.36265 25.25522 6369 ft 221 kts 56°
2026-05-06 13:59 60.37041 25.28137 6275 ft 211 kts 56°
2026-05-06 14:00 60.37777 25.30622 6147 ft 202 kts 55°
2026-05-06 14:00 60.38491 25.33029 5932 ft 198 kts 56°
2026-05-06 14:00 60.39199 25.35414 5698 ft 198 kts 55°
2026-05-06 14:00 60.39952 25.37721 5476 ft 192 kts 40°
2026-05-06 14:01 60.41004 25.38786 5387 ft 161 kts 360°
2026-05-06 14:01 60.42002 25.38337 5263 ft 139 kts 328°
2026-05-06 14:01 60.42722 25.37154 5052 ft 128 kts 308°
2026-05-06 14:01 60.43194 25.35706 4811 ft 123 kts 302°
2026-05-06 14:02 60.43677 25.34291 4467 ft 122 kts 304°
2026-05-06 14:02 60.44183 25.32894 4139 ft 124 kts 305°
2026-05-06 14:02 60.44692 25.31499 3842 ft 124 kts 305°
2026-05-06 14:02 60.45203 25.30112 3576 ft 123 kts 305°
2026-05-06 14:03 60.45647 25.28738 3455 ft 110 kts 294°
2026-05-06 14:03 60.45763 25.27159 3400 ft 120 kts 264°
2026-05-06 14:03 60.45447 25.25529 3355 ft 126 kts 242°
2026-05-06 14:03 60.44918 25.24113 3298 ft 125 kts 233°
2026-05-06 14:04 60.44332 25.22806 3234 ft 124 kts 231°
2026-05-06 14:04 60.43753 25.21521 3184 ft 127 kts 232°
2026-05-06 14:04 60.43147 25.20172 3102 ft 132 kts 232°
2026-05-06 14:04 60.42532 25.18813 2941 ft 128 kts 231°
2026-05-06 14:05 60.41943 25.17508 2792 ft 123 kts 232°
2026-05-06 14:05 60.41367 25.16223 2623 ft 126 kts 231°
2026-05-06 14:05 60.40771 25.14909 2462 ft 125 kts 232°
2026-05-06 14:05 60.40198 25.13647 2315 ft 122 kts 232°
2026-05-06 14:06 60.39637 25.12404 2132 ft 119 kts 231°
2026-05-06 14:06 60.39070 25.11150 1974 ft 121 kts 231°
2026-05-06 14:06 60.38490 25.09867 1800 ft 125 kts 230°
2026-05-06 14:06 60.37923 25.08615 1639 ft 118 kts 230°
2026-05-06 14:07 60.37363 25.07381 1493 ft 119 kts 230°
2026-05-06 14:07 60.36794 25.06169 1354 ft 119 kts 230°
2026-05-06 14:07 60.36228 25.04930 1222 ft 121 kts 230°
2026-05-06 14:07 60.35659 25.03657 960 ft 122 kts 231°
2026-05-06 14:08 60.35106 25.02403 776 ft 116 kts 229°
2026-05-06 14:08 60.34565 25.01191 609 ft 117 kts 229°
2026-05-06 14:08 60.34007 24.99961 460 ft 119 kts 228°
2026-05-06 14:08 60.33451 24.98737 300 ft 115 kts 228°
2026-05-06 14:09 60.32915 24.97567 190 ft 113 kts 228°
2026-05-06 14:09 60.32446 24.96525 161 ft 72 kts 226°
2026-05-06 14:09 60.32254 24.96113 164 ft 35 kts 226°
2026-05-06 14:09 60.32074 24.95818 163 ft 28 kts 176°
2026-05-06 14:10 60.32043 24.95834 163 ft 0 kts 159°
2026-05-06 14:10 60.32016 24.95861 162 ft 11 kts 144°
2026-05-06 14:11 60.31967 24.96038 161 ft 15 kts 69°
2026-05-06 14:11 60.32056 24.96243 161 ft 26 kts 47°
2026-05-06 14:11 60.32196 24.96554 161 ft 33 kts 46°
2026-05-06 14:11 60.32237 24.96749 161 ft 8 kts 157°
2026-05-06 14:12 60.32143 24.96854 161 ft 22 kts 152°
2026-05-06 14:12 60.31999 24.97013 161 ft 24 kts 153°
2026-05-06 14:12 60.31936 24.97053 161 ft 7 kts 204°
2026-05-06 14:12 60.31910 24.96988 161 ft 0 kts 242°
2026-05-06 14:13 60.31902 24.96961 161 ft 0 kts 241°